Location: Paris
(48.6709°N, 2.3750°E)
Time: 05:55:12
(UTC+02:00)

Gurwin Techsat 1B - Pass Details

Date: 03 July 2022
Orbit: 812 x 813 km, 98.8° (Epoch: 16 August)

Event Time Altitude Azimuth Distance (km) Brightness Sun altitude
Rises 03:13:40 0° 27° (NNE) 3,347 13.6 -16.2°
Reaches altitude 10° 03:16:42 10° 45° (NE) 2,410 12.1 -16.0°
Maximum altitude 03:20:29 19° 90° (E) 1,831 10.7 -15.8°
Drops below altitude 10° 03:24:14 10° 136° (SE) 2,397 10.8 -15.6°
Enters shadow 03:25:45 - 146° (SE) 2,836 11.1 -15.5°
